This is the latest recevied weather packets stored in our database for station/object KJ5JYX. If no packets are shown the sender has not sent any weather packets the latest 10 day(s).
| Time | Temp. | Humidity | Pressure | Rain* | Wind** | Luminosity | Snow |
|---|---|---|---|---|---|---|---|
| 1778019522 | 31.11° C | 62% | 1006.3 hPa | 0 mm | - | 138 W/m² | - |
| 1778018915 | 31.11° C | 63% | 1006.4 hPa | 0 mm | - | 263 W/m² | - |
| 1778017100 | 31.67° C | 59% | 1006.4 hPa | 0 mm | - | 344 W/m² | - |
| 1778016798 | 32.22° C | 60% | 1006.6 hPa | 0 mm | - | 254 W/m² | - |
| 1778016190 | 31.67° C | 61% | 1006.8 hPa | 0 mm | - | 425 W/m² | - |
| 1778015887 | 31.11° C | 63% | 1006.7 hPa | 0 mm | - | 463 W/m² | - |
| 1778015585 | 31.67° C | 62% | 1006.6 hPa | 0 mm | - | 410 W/m² | - |
| 1778015281 | 31.67° C | 62% | 1006.5 hPa | 0 mm | - | 379 W/m² | - |
| 1778014978 | 31.67° C | 63% | 1006.6 hPa | 0 mm | - | 410 W/m² | - |
| 1778014675 | 31.67° C | 61% | 1006.9 hPa | 0 mm | - | 425 W/m² | - |
| 1778013768 | 31.67° C | 61% | 1007.1 hPa | 0 mm | - | 352 W/m² | - |
| 1778013464 | 31.67° C | 63% | 1007.3 hPa | 0 mm | - | 521 W/m² | - |
| 1778013161 | 31.11° C | 62% | 1007.4 hPa | 0 mm | - | 602 W/m² | - |
| 1778012857 | 31.67° C | 62% | 1007.1 hPa | 0 mm | - | 470 W/m² | - |
| 1778012553 | 31.67° C | 64% | 1007.2 hPa | 0 mm | - | 590 W/m² | - |
| 1778012250 | 31.11° C | 61% | 1007.3 hPa | 0 mm | - | 557 W/m² | - |
| 1778011948 | 31.11° C | 62% | 1007.5 hPa | 0 mm | - | 534 W/m² | - |
| 1778011646 | 31.11° C | 63% | 1007.4 hPa | 0 mm | - | 420 W/m² | - |
| 1778011343 | 31.67° C | 62% | 1007.2 hPa | 0 mm | - | 653 W/m² | - |
| 1778011038 | 31.67° C | 64% | 1007.6 hPa | 0 mm | - | 636 W/m² | - |
| 1778010736 | 31.11° C | 62% | 1007.6 hPa | 0 mm | - | 633 W/m² | - |
| 1778009825 | 31.11° C | 63% | 1007.5 hPa | 0 mm | - | 468 W/m² | - |
| 1778009522 | 31.11° C | 62% | 1007.6 hPa | 0 mm | - | 597 W/m² | - |
| 1778009221 | 31.11° C | 62% | 1007.7 hPa | 0 mm | - | 703 W/m² | - |
| 1778008918 | 30.56° C | 64% | 1007.8 hPa | 0 mm | - | 705 W/m² | - |
* Rain latest hour (hover to see other rain measurements)
** Current wind speed in m/s (hover to see current wind gust speed)